DW6169 Weather Reports


Display with metric or nautical units.
time (UTC)temp
F
wind
direction
speed
MPH
gust
MPH
rain 1hr
in
rain 24hr
in
rain mn
in
humidity
%
barometer
mb
20260906163559 93 0 0.0 9.0 0.00 2.39 0.00 60 1013.7
20260906163106 92 236 2.0 9.0 0.00 2.39 0.00 61 1013.8
20260906162558 92 0 1.0 8.0 0.00 2.39 0.00 59 1013.8
20260906162057 91 227 1.0 8.0 0.00 2.39 0.00 62 1013.9
20260906161600 91 254 0.0 8.0 0.00 2.39 0.00 64 1013.9
20260906161057 90 205 0.0 7.0 0.00 2.39 0.00 65 1013.9
20260906160558 90 268 0.0 6.0 0.00 2.39 0.00 65 1014.0
20260906160101 90 239 3.0 6.0 0.00 2.39 0.00 65 1014.1
20260906155558 90 338 0.0 8.0 0.00 2.39 0.00 66 1014.2
20260906155057 90 0 1.0 8.0 0.00 2.39 0.00 65 1014.4
20260906154609 90 0 1.0 4.0 0.00 2.39 0.00 67 1014.5
20260906154058 89 296 1.0 8.0 0.00 2.39 0.00 69 1014.4
20260906153557 89 0 0.0 8.0 0.00 2.39 0.00 72 1014.5
20260906153117 88 0 1.0 8.0 0.00 2.39 0.00 73 1014.4
20260906152557 87 0 2.0 7.0 0.00 2.39 0.00 75 1014.5
20260906152059 87 261 0.0 3.0 0.00 2.39 0.00 79 1014.6
20260906151605 86 0 0.0 3.0 0.00 2.39 0.00 82 1014.6
20260906151057 85 0 0.0 3.0 0.00 2.39 0.00 85 1014.6
20260906150559 84 0 0.0 4.0 0.00 2.39 0.00 86 1014.5
20260906150108 84 0 0.0 4.0 0.00 2.39 0.00 88 1014.4
20260906145600 83 0 1.0 7.0 0.00 2.39 0.00 89 1014.5
20260906145058 83 0 0.0 7.0 0.00 2.39 0.00 89 1014.6
20260906144603 82 248 0.0 4.0 0.00 2.39 0.00 90 1014.6
20260906144057 82 234 0.0 4.0 0.00 2.39 0.00 91 1014.7
20260906143558 82 0 0.0 1.0 0.00 2.39 0.00 91 1014.7
20260906143101 82 0 0.0 1.0 0.00 2.39 0.00 91 1014.8
20260906142557 81 0 0.0 1.0 0.00 2.39 0.00 91 1014.9
20260906142059 81 0 0.0 1.0 0.00 2.39 0.00 91 1014.9
20260906141602 80 0 0.0 4.0 0.00 2.39 0.00 91 1014.8
20260906141058 80 0 1.0 4.0 0.00 2.39 0.00 91 1014.9
20260906140600 80 0 0.0 3.0 0.00 2.39 0.00 91 1014.9
20260906140109 80 0 0.0 3.0 0.00 2.39 0.00 91 1014.9
20260906135558 80 252 0.0 3.0 0.00 2.39 0.00 91 1014.9
20260906135058 80 252 0.0 0.0 0.00 2.39 0.00 92 1014.9
20260906134617 80 0 0.0 0.0 0.00 2.39 0.00 91 1014.7
20260906134058 80 0 0.0 0.0 0.00 2.39 0.00 91 1014.7
20260906133557 79 0 0.0 0.0 0.00 2.39 0.00 91 1014.7
20260906133109 79 0 0.0 0.0 0.00 2.39 0.00 91 1014.7
20260906132558 79 0 0.0 0.0 0.00 2.39 0.00 91 1014.8
20260906132057 79 0 0.0 0.0 0.00 2.39 0.00 91 1014.8
20260906131609 79 0 0.0 0.0 0.00 2.39 0.00 91 1014.6
20260906131058 79 0 0.0 0.0 0.00 2.39 0.00 91 1014.6
20260906130557 78 0 0.0 0.0 0.00 2.39 0.00 91 1014.7
20260906130104 78 0 0.0 0.0 0.00 2.39 0.00 91 1014.9
20260906125558 78 0 0.0 0.0 0.00 2.41 0.00 91 1014.8
20260906125057 78 0 0.0 0.0 0.00 2.41 0.00 91 1014.9
20260906124602 78 0 0.0 0.0 0.00 2.41 0.00 91 1014.7
20260906124059 78 0 0.0 0.0 0.00 2.41 0.00 91 1014.7
20260906123556 78 0 0.0 0.0 0.00 2.41 0.00 91 1014.7
20260906123103 78 0 0.0 0.0 0.00 2.41 0.00 91 1014.6
20260906122556 78 0 0.0 0.0 0.00 2.41 0.00 91 1014.5
20260906122056 78 0 0.0 0.0 0.00 2.41 0.00 91 1014.5
20260906121607 78 0 0.0 0.0 0.00 2.41 0.00 91 1014.5
20260906121100 77 0 0.0 0.0 0.00 2.41 0.00 91 1014.4
20260906120600 77 0 0.0 0.0 0.00 2.41 0.00 91 1014.3
20260906120107 77 0 0.0 0.0 0.00 2.41 0.00 91 1014.2
20260906115558 77 0 0.0 0.0 0.00 2.46 0.00 91 1014.2
20260906115058 77 0 0.0 0.0 0.00 2.46 0.00 91 1014.2
20260906114612 77 0 0.0 0.0 0.00 2.46 0.00 91 1014.2
20260906114056 76 0 0.0 0.0 0.00 2.46 0.00 91 1014.1
20260906113557 76 0 0.0 0.0 0.00 2.46 0.00 91 1014.0
20260906113103 76 0 0.0 0.0 0.00 2.46 0.00 91 1014.0
20260906112600 76 0 0.0 0.0 0.00 2.46 0.00 91 1013.8
20260906112100 76 0 0.0 0.0 0.00 2.46 0.00 91 1013.7
20260906111608 76 0 0.0 0.0 0.00 2.46 0.00 91 1013.7
20260906111058 76 0 0.0 0.0 0.00 2.46 0.00 91 1013.6
20260906110600 76 0 0.0 0.0 0.00 2.46 0.00 91 1013.5
20260906110104 76 0 0.0 0.0 0.00 2.46 0.00 91 1013.4
20260906105600 76 0 0.0 0.0 0.00 2.46 0.00 91 1013.2
20260906105101 76 0 0.0 0.0 0.00 2.46 0.00 91 1013.1
20260906104606 76 0 0.0 0.0 0.00 2.46 0.00 91 1012.9
20260906104057 76 0 0.0 0.0 0.00 2.46 0.00 91 1012.9
20260906103556 76 0 0.0 0.0 0.00 2.46 0.00 91 1012.8
20260906103112 76 0 0.0 0.0 0.00 2.46 0.00 91 1012.7
20260906102558 76 0 0.0 0.0 0.00 2.46 0.00 91 1012.6
20260906102102 76 0 0.0 0.0 0.00 2.46 0.00 91 1012.5
20260906101601 76 0 0.0 0.0 0.00 2.46 0.00 91 1012.4
20260906101057 76 0 0.0 0.0 0.00 2.46 0.00 91 1012.5
20260906100557 76 0 0.0 0.0 0.00 2.46 0.00 91 1012.5
20260906100105 76 0 0.0 0.0 0.00 2.46 0.00 91 1012.3
20260906095558 76 0 0.0 0.0 0.00 2.46 0.00 91 1012.3
20260906095101 76 0 0.0 0.0 0.00 2.46 0.00 91 1012.2
20260906094608 76 0 0.0 0.0 0.00 2.46 0.00 91 1012.1
20260906094102 76 0 0.0 0.0 0.00 2.46 0.00 91 1012.1
20260906093558 76 0 0.0 0.0 0.00 2.46 0.00 91 1012.1
20260906093105 76 0 0.0 0.0 0.00 2.46 0.00 91 1012.3
20260906092558 76 0 0.0 0.0 0.00 2.46 0.00 91 1012.3
20260906092058 76 0 0.0 0.0 0.00 2.46 0.00 91 1012.2
20260906091602 76 0 0.0 0.0 0.00 2.46 0.00 91 1012.3
20260906091058 76 0 0.0 0.0 0.00 2.46 0.00 91 1012.3
20260906090601 76 0 0.0 2.0 0.00 2.46 0.00 91 1012.3
20260906090117 76 0 0.0 2.0 0.00 2.46 0.00 91 1012.3
20260906085559 76 0 0.0 0.0 0.00 2.46 0.00 91 1012.2
20260906085057 76 0 0.0 0.0 0.00 2.46 0.00 91 1012.1
20260906084613 76 0 0.0 0.0 0.00 2.46 0.00 91 1012.0
20260906084057 76 0 0.0 0.0 0.00 2.46 0.00 91 1012.0
20260906083558 76 0 0.0 0.0 0.00 2.46 0.00 91 1012.1
20260906083109 76 0 0.0 0.0 0.00 2.46 0.00 91 1012.0
20260906082557 76 0 0.0 0.0 0.00 2.46 0.00 91 1012.0
20260906082058 76 0 0.0 0.0 0.00 2.46 0.00 91 1012.0
20260906081601 76 0 0.0 0.0 0.00 2.46 0.00 91 1012.0
20260906081058 76 0 0.0 0.0 0.00 2.46 0.00 91 1012.1
20260906080558 77 0 0.0 2.0 0.00 2.46 0.00 91 1012.2
20260906080126 77 0 0.0 2.0 0.00 2.46 0.00 91 1012.3
20260906075558 77 0 0.0 1.0 0.00 2.46 0.00 91 1012.3
20260906075058 77 0 0.0 3.0 0.00 2.46 0.00 91 1012.3
20260906074627 77 0 0.0 3.0 0.00 2.46 0.00 91 1012.4
20260906074101 77 73 0.0 0.0 0.00 2.46 0.00 91 1012.5
20260906073558 77 0 0.0 0.0 0.00 2.46 0.00 90 1012.7
20260906073114 77 0 0.0 0.0 0.00 2.46 0.00 90 1012.5
20260906072603 77 0 0.0 0.0 0.00 2.46 0.00 90 1012.6
20260906072102 77 0 0.0 0.0 0.00 2.46 0.00 90 1012.7
20260906071603 77 0 0.0 0.0 0.00 2.46 0.00 90 1012.7
20260906071102 77 0 0.0 0.0 0.00 2.46 0.00 90 1012.7
20260906070602 77 0 0.0 0.0 0.00 2.46 0.00 90 1012.7
20260906070116 77 0 0.0 0.0 0.00 2.46 0.00 90 1012.7
20260906065603 77 0 0.0 0.0 0.00 2.46 0.00 90 1012.7
20260906065102 77 0 0.0 0.0 0.00 2.46 0.00 90 1012.7
20260906064610 77 0 0.0 0.0 0.00 2.46 0.00 90 1012.6
20260906064102 77 0 0.0 0.0 0.00 2.46 0.00 90 1012.7
20260906063603 77 0 0.0 0.0 0.00 2.46 0.00 90 1012.9
20260906063102 77 0 0.0 0.0 0.00 2.46 0.00 90 1013.1
20260906062601 77 0 0.0 0.0 0.00 2.46 0.00 90 1013.2
20260906062101 77 0 0.0 0.0 0.00 2.46 0.00 90 1013.3
20260906061605 77 0 0.0 0.0 0.00 2.46 0.00 90 1013.3
20260906061102 77 0 0.0 0.0 0.00 2.46 0.00 90 1013.5
20260906060600 77 0 0.0 0.0 0.00 2.46 0.00 90 1013.7
20260906060109 76 0 0.0 0.0 0.00 2.46 0.00 90 1013.7
20260906055601 76 0 0.0 0.0 0.00 2.46 0.00 90 1013.7
20260906055058 76 0 0.0 0.0 0.00 2.46 0.00 90 1013.9
20260906054604 76 0 0.0 0.0 0.00 2.46 0.00 90 1014.0
20260906054101 76 0 0.0 0.0 0.00 2.46 0.00 90 1014.0
20260906053602 76 0 0.0 0.0 0.00 2.46 0.00 90 1014.0
20260906053105 76 0 0.0 0.0 0.00 2.46 0.00 90 1013.8
20260906052603 76 0 0.0 0.0 0.00 2.46 0.00 90 1013.6
20260906052101 76 0 0.0 0.0 0.00 2.46 0.00 90 1013.5
20260906051607 76 0 0.0 0.0 0.00 2.46 0.00 90 1013.5
20260906051101 76 0 0.0 0.0 0.00 2.46 0.00 90 1013.4
20260906050600 76 0 0.0 2.0 0.00 2.46 0.00 90 1013.2
20260906050110 76 0 0.0 2.0 0.00 2.46 0.00 90 1013.1
20260906045602 76 0 0.0 2.0 0.00 2.46 0.00 90 1013.1
20260906045100 76 0 0.0 0.0 0.00 2.46 0.00 90 1013.1
20260906044602 76 0 0.0 0.0 0.00 2.46 0.00 90 1013.1
20260906044103 76 0 0.0 0.0 0.00 2.46 0.00 90 1013.2
20260906043600 76 0 0.0 0.0 0.00 2.46 0.00 90 1013.3
20260906043107 76 0 0.0 0.0 0.00 2.46 0.00 90 1013.5
20260906042557 76 0 0.0 0.0 0.00 2.46 0.00 90 1013.7
20260906042057 76 0 0.0 0.0 0.00 2.46 0.00 90 1013.7
20260906041605 76 0 0.0 0.0 0.00 2.46 0.00 90 1013.9
20260906041056 76 0 0.0 0.0 0.00 2.46 0.00 90 1014.0
20260906040601 76 0 0.0 0.0 0.00 2.46 0.00 90 1014.1
20260906040105 76 0 0.0 0.0 0.00 2.46 0.00 90 1014.2
20260906035556 76 0 0.0 0.0 0.00 2.46 2.46 90 1014.3
20260906035058 76 0 0.0 0.0 0.00 2.46 2.46 90 1014.3
20260906034639 76 0 0.0 0.0 0.00 2.46 2.46 90 1014.2
20260906034056 76 0 0.0 0.0 0.00 2.46 2.46 90 1014.3
20260906033558 76 0 0.0 0.0 0.00 2.46 2.46 90 1014.4
20260906033109 76 0 0.0 1.0 0.00 2.46 2.46 90 1014.4
20260906032556 77 0 0.0 2.0 0.01 2.46 2.46 89 1014.5
20260906032057 77 0 0.0 6.0 0.01 2.46 2.46 89 1014.7
20260906031602 77 250 1.0 6.0 0.01 2.46 2.46 89 1014.7
20260906031057 77 0 0.0 4.0 0.01 2.46 2.46 89 1014.7
20260906030557 77 263 0.0 4.0 0.01 2.46 2.46 89 1015.0
20260906025556 77 0 1.0 4.0 0.01 2.46 2.46 89 1015.3
20260906025057 77 0 0.0 3.0 0.01 2.46 2.46 89 1015.5
20260906024609 76 0 0.0 0.0 0.01 2.46 2.46 89 1015.6
20260906024056 76 0 0.0 0.0 0.01 2.46 2.46 89 1015.6
20260906023558 76 0 0.0 0.0 0.01 2.46 2.46 89 1015.7
20260906023101 76 0 0.0 0.0 0.01 2.46 2.46 89 1015.7
20260906022556 76 0 0.0 0.0 0.00 2.45 2.45 89 1015.7
20260906022056 76 0 0.0 0.0 0.00 2.45 2.45 89 1015.8
20260906021608 76 0 0.0 0.0 0.00 2.45 2.45 89 1015.9
20260906021059 76 0 0.0 0.0 0.00 2.45 2.45 89 1015.8
20260906020556 76 0 0.0 0.0 0.00 2.45 2.45 89 1015.8
20260906020108 76 0 0.0 0.0 0.00 2.45 2.45 89 1015.8
20260906015557 76 0 0.0 0.0 0.00 2.45 2.45 89 1015.7
20260906015057 76 0 0.0 0.0 0.00 2.45 2.45 89 1015.6
20260906014603 76 0 0.0 0.0 0.01 2.45 2.45 89 1015.6
20260906014056 76 0 0.0 0.0 0.01 2.45 2.45 89 1015.5
20260906013557 76 0 0.0 0.0 0.01 2.45 2.45 89 1015.5
20260906013108 76 0 0.0 0.0 0.02 2.45 2.45 89 1015.3
20260906012556 76 0 0.0 0.0 0.02 2.45 2.45 88 1015.3
20260906012056 76 0 0.0 0.0 0.03 2.45 2.45 88 1015.2
20260906011604 76 0 0.0 0.0 0.03 2.45 2.45 88 1015.0
20260906011057 76 0 0.0 0.0 0.04 2.45 2.45 88 1014.9
20260906010557 76 0 0.0 2.0 0.04 2.45 2.45 88 1014.9
20260906010108 77 0 0.0 3.0 0.05 2.45 2.45 88 1014.8
20260906005557 77 0 0.0 5.0 0.06 2.45 2.45 88 1014.7
20260906005057 77 252 0.0 5.0 0.06 2.45 2.45 88 1014.6
20260906004604 76 0 0.0 0.0 0.05 2.44 2.44 88 1014.5
20260906004057 76 0 0.0 0.0 0.05 2.44 2.44 88 1014.4
20260906003557 76 0 0.0 0.0 0.05 2.44 2.44 88 1014.4
20260906003105 76 0 0.0 0.0 0.04 2.43 2.43 88 1014.3
20260906002556 76 0 0.0 0.0 0.04 2.43 2.43 88 1014.4
20260906002057 76 0 0.0 0.0 0.04 2.42 2.42 87 1014.4
20260906001604 76 0 0.0 0.0 0.05 2.42 2.42 87 1014.3
20260906001059 76 0 0.0 0.0 0.04 2.41 2.41 87 1014.2
20260906000557 76 0 0.0 0.0 0.04 2.41 2.41 87 1014.2
20260906000112 76 0 0.0 0.0 0.04 2.40 2.40 87 1014.2
20260905235557 76 0 0.0 0.0 0.05 2.39 2.39 87 1014.3
20260905235057 76 0 0.0 0.0 0.07 2.39 2.39 87 1014.3
20260905234622 76 0 0.0 0.0 0.12 2.39 2.39 87 1014.4
20260905234057 76 0 0.0 0.0 0.19 2.39 2.39 87 1014.4
20260905233557 76 0 0.0 1.0 0.32 2.39 2.39 86 1014.4
20260905233103 76 0 0.0 6.0 0.43 2.39 2.39 86 1014.4
20260905232557 76 0 0.0 6.0 0.56 2.39 2.39 86 1014.5
20260905232058 76 344 1.0 6.0 0.70 2.38 2.38 86 1014.5
20260905231607 76 0 0.0 0.0 1.01 2.36 2.36 86 1014.4
20260905231057 76 0 0.0 0.0 1.36 2.36 2.36 85 1014.3
20260905230557 76 0 0.0 0.0 1.81 2.36 2.36 85 1014.4
20260905230110 76 0 0.0 0.0 2.17 2.35 2.35 85 1014.4
20260905225558 76 0 0.0 0.0 2.24 2.33 2.33 84 1014.4
20260905225058 76 0 0.0 0.0 2.25 2.32 2.32 84 1014.5
20260905224621 77 0 0.0 2.0 2.20 2.27 2.27 83 1014.8
20260905224058 77 0 0.0 2.0 2.13 2.20 2.20 83 1015.0
20260905223557 77 0 0.0 2.0 2.00 2.07 2.07 82 1015.1
20260905223102 78 0 0.0 15.0 1.88 1.95 1.95 82 1015.3
20260905222558 78 0 2.0 15.0 1.76 1.83 1.83 81 1014.9
20260905222058 79 266 6.0 15.0 1.61 1.68 1.68 79 1014.9
20260905221602 82 244 3.0 12.0 1.28 1.35 1.35 78 1014.7
20260905221101 84 232 2.0 6.0 0.94 1.01 1.01 76 1014.4
20260905220558 86 259 1.0 8.0 0.49 0.56 0.56 74 1014.3
20260905220118 87 304 1.0 8.0 0.12 0.19 0.19 72 1014.0
20260905215603 87 28 1.0 7.0 0.02 0.10 0.09 71 1013.7
20260905215102 88 0 0.0 5.0 0.00 0.08 0.07 70 1013.5
20260905214606 88 0 1.0 8.0 0.00 0.08 0.07 70 1013.3
20260905214101 88 77 2.0 8.0 0.00 0.08 0.07 70 1013.1
20260905213603 89 186 0.0 8.0 0.00 0.08 0.07 69 1013.1
20260905213126 89 0 0.0 7.0 0.00 0.08 0.07 69 1013.2
20260905212602 89 84 0.0 7.0 0.00 0.08 0.07 68 1013.2
20260905212057 90 102 0.0 6.0 0.00 0.08 0.07 68 1013.1
20260905211603 90 184 0.0 6.0 0.00 0.08 0.07 67 1013.1
20260905211105 90 232 1.0 6.0 0.00 0.08 0.07 66 1012.8
20260905210602 91 103 1.0 7.0 0.00 0.08 0.07 66 1012.8
20260905210109 92 286 1.0 7.0 0.00 0.08 0.07 65 1012.8
20260905205601 93 252 1.0 6.0 0.00 0.09 0.07 65 1012.8
20260905205100 94 0 0.0 5.0 0.00 0.09 0.07 65 1012.9
20260905204602 95 189 0.0 7.0 0.00 0.09 0.07 64 1012.9
20260905204101 95 226 1.0 7.0 0.00 0.09 0.07 63 1013.0
20260905203600 95 196 1.0 7.0 0.00 0.09 0.07 64 1013.0
20260905203114 95 297 1.0 5.0 0.00 0.09 0.07 64 1012.9
20260905202601 95 175 1.0 5.0 0.00 0.09 0.07 64 1012.8
20260905202100 96 180 1.0 9.0 0.00 0.09 0.07 63 1012.9
20260905201604 96 236 2.0 9.0 0.00 0.09 0.07 63 1012.9
20260905201059 97 117 0.0 3.0 0.00 0.09 0.07 63 1012.8
20260905200601 96 143 1.0 3.0 0.00 0.09 0.07 62 1013.0
20260905200108 96 0 0.0 5.0 0.00 0.09 0.07 64 1013.2
20260905195558 96 130 0.0 5.0 0.00 0.09 0.07 65 1013.3
20260905195058 95 204 1.0 6.0 0.00 0.09 0.07 63 1013.3
20260905194608 96 120 1.0 8.0 0.00 0.09 0.07 62 1013.3
20260905194100 96 101 0.0 8.0 0.00 0.09 0.07 62 1013.2
20260905193558 96 312 0.0 6.0 0.00 0.09 0.07 63 1013.2
20260905193120 95 0 1.0 6.0 0.00 0.09 0.07 63 1013.1
20260905192602 95 136 0.0 3.0 0.00 0.09 0.07 64 1013.2
20260905192102 94 287 1.0 6.0 0.00 0.09 0.07 64 1013.2
20260905191620 93 0 1.0 7.0 0.00 0.09 0.07 66 1013.3
20260905191059 93 0 1.0 7.0 0.00 0.09 0.07 65 1013.4
20260905190601 93 0 1.0 4.0 0.00 0.09 0.07 66 1013.6
20260905190106 93 0 0.0 4.0 0.00 0.09 0.07 66 1013.6
20260905185602 93 243 0.0 3.0 0.00 0.09 0.07 65 1013.7
20260905185058 93 0 0.0 4.0 0.00 0.09 0.07 65 1013.6
20260905184616 93 0 1.0 4.0 0.00 0.09 0.07 65 1013.6
20260905184101 93 215 0.0 6.0 0.00 0.09 0.07 65 1013.6
20260905183603 93 0 1.0 7.0 0.00 0.09 0.07 67 1013.5
20260905183103 92 0 3.0 7.0 0.00 0.09 0.07 67 1013.6
20260905182601 92 0 0.0 7.0 0.00 0.09 0.07 66 1013.7
20260905182100 92 86 1.0 6.0 0.00 0.09 0.07 67 1013.9
20260905181610 90 275 0.0 4.0 0.00 0.09 0.07 69 1014.1
20260905181101 89 103 1.0 4.0 0.00 0.09 0.07 69 1014.1
20260905180600 88 250 0.0 0.0 0.00 0.09 0.07 71 1014.3
20260905180109 88 0 0.0 3.0 0.00 0.09 0.07 70 1014.2
20260905175600 87 0 0.0 3.0 0.00 0.09 0.07 70 1014.2
20260905175059 87 0 0.0 7.0 0.00 0.09 0.07 69 1014.3
20260905174606 87 0 0.0 8.0 0.00 0.09 0.07 69 1014.4
20260905174059 87 246 3.0 8.0 0.00 0.09 0.07 68 1014.4
20260905173558 88 0 0.0 7.0 0.00 0.09 0.07 68 1014.4
20260905173103 88 0 3.0 8.0 0.00 0.09 0.07 67 1014.4
20260905172603 89 0 2.0 11.0 0.00 0.09 0.07 66 1014.2
20260905172058 90 240 4.0 11.0 0.00 0.09 0.07 65 1014.3
20260905171636 91 315 1.0 7.0 0.00 0.09 0.07 64 1014.4
20260905171100 93 0 1.0 7.0 0.00 0.09 0.07 62 1014.6
20260905170559 94 234 1.0 7.0 0.00 0.09 0.07 63 1014.7
20260905170108 94 0 0.0 6.0 0.00 0.09 0.07 64 1014.8
20260905165604 94 0 1.0 6.0 0.00 0.09 0.07 64 1014.7
20260905165101 94 283 1.0 4.0 0.00 0.09 0.07 64 1014.7
20260905164606 94 0 0.0 4.0 0.00 0.09 0.07 65 1014.6
20260905164058 93 217 1.0 4.0 0.00 0.09 0.07 66 1014.7